Regional Weather Roundup
Issued by NWS

Home | Current Version | Previous Version | Graphics & Text | Print | Product List | Glossary On
Versions: 1 2 3 4 5 6 7 8 9 10 11 12 13 14 15 16 17 18 19 20 21 22 23 24 25 26 27 28 29 30 31 32 33 34 35 36 37 38 39 40 41 42 43 44 45 46 47 48 49 50
000
ASUS45 KCYS 250210
RWRWY

WYOMING REGIONAL WEATHER ROUNDUP
NATIONAL WEATHER SERVICE CHEYENNE WY
800 PM MDT SUN JUL 24 2016

NOTE:  "FAIR" INDICATES FEW OR NO CLOUDS BELOW 12,000 FEET
WITH NO SIGNIFICANT WEATHER AND/OR OBSTRUCTIONS TO VISIBILITY.

WYZ001-250300-
YELLOWSTONE NATIONAL PARK

CITY           SKY/WX    TMP DP  RH WIND       PRES   REMARKS
LK YELLOWSTONE   N/A     70  21  15 W3        30.36R
W YELLOWSTONE  NOT AVBL

$$
WYZ002>013-054>058-071-098>099-250300-
NORTHERN WYOMING

CITY           SKY/WX    TMP DP  RH WIND       PRES   REMARKS
JACKSON        CLEAR     79  30  17 SW6       30.21S
CODY           FAIR      82  36  18 E7        30.11R
GREYBULL       FAIR      89  30  12 S3        30.00S
WORLAND        FAIR      85  37  18 NE6       30.02S
SHERIDAN       FAIR      86  43  22 E3        30.04S
BUFFALO        FAIR      83  39  21 NE6       30.12S
GILLETTE       FAIR      83  39  21 E6        30.08S
HULETT         FAIR      79  46  31 E10G17    30.12S
NEWCASTLE      FAIR      82  37  20 SE9       30.12R

$$
WYZ014>020-022>026-101>103-250300-
CENTRAL WYOMING

CITY           SKY/WX    TMP DP  RH WIND       PRES   REMARKS
BIG PINEY      FAIR      79  28  15 NW6       30.25R
PINEDALE       FAIR      77  28  16 N6        30.27R
DUBOIS         FAIR      73  18  12 W3        30.25R
LANDER         FAIR      83  33  16 NE5       30.12R
RIVERTON       FAIR      83  29  14 NE7       30.12R
CASPER         FAIR      82  30  15 SE5       30.13S
DOUGLAS          N/A    N/A N/A N/A MISG      30.11S

$$
WYZ021-027>030-104>119-250300-
SOUTHERN WYOMING

CITY           SKY/WX    TMP DP  RH WIND       PRES   REMARKS
EVANSTON       FAIR      79  17  10 W10       30.27S
KEMMERER         N/A    N/A N/A N/A W9        30.28S
FORT BRIDGER   FAIR      82  18   9 W14       30.29R
ROCK SPRINGS   FAIR      83  15   8 NW12      30.22R
DIXON          FAIR      80  44  27 NW5       30.22R
RAWLINS        FAIR      82  13   7 W16G23    30.22R
SARATOGA       FAIR      79  30  17 CALM      30.25R
LARAMIE        FAIR      75  28  17 NE7       30.27R
CHEYENNE       FAIR      65  53  65 S22G29    30.27R
TORRINGTON     FAIR      76  51  41 E21G26    30.10R
PINE BLUFFS    FAIR      64  54  68 S13       30.20R

$$



USA.gov is the U.S. government's official web portal to all federal, state and local government web resources and services.